Fairbanks, AK

3:20 AM AKST on December 11, 2019 (GMT -0900)
Fairbanks International

Weather History for PAFA - May, 2019

Change the Weather History Date:

Wednesday, May 22, 2019

  Actual Average Record
Temperature  
Mean Temperature 59 °F 52 °F  
Max Temperature 73 °F 64 °F 84 °F (1963)
Min Temperature 45 °F 40 °F 26 °F (1933)
Degree Days  
Heating Degree Days 6 13  
Month to date heating degree days 293 384  
Since 1 July heating degree days 11555 13408  
Cooling Degree Days 0 0  
Month to date cooling degree days 0 0  
Year to date cooling degree days 0 0  
Growing Degree Days 9 (Base 50)    
Moisture  
Dew Point 41 °F    
Average Humidity 50    
Maximum Humidity 73    
Minimum Humidity 33    
Precipitation  
Precipitation 0.00 in 0.02 in 0.30 in (1922)
Month to date precipitation 0.59 0.39  
Year to date precipitation 3.07 1.95  
Snow  
Snow 0.00 in 0.00 in T in (1968)
Month to date snowfall T 0.8  
Since 1 July snowfall 57.5 64.9  
Snow Depth 0.00 in    
Sea Level Pressure  
Sea Level Pressure 29.95 in    
Wind  
Wind Speed 2 mph (ESE)    
Max Wind Speed 8 mph    
Max Gust Speed -    
Visibility 10 miles    
Events      
T = Trace of Precipitation, MM = Missing Value Source: NWS Daily Summary

Daily Weather History Graph

Daily Weather History Graph

Search for Another Location

Airport or City:

Astronomy

May. 22, 2019 Rise Set
Actual Time 4:05 AM AKDT 11:33 PM AKDT
Civil Twilight 2:20 AM AKDT 1:15 AM AKDT
Nautical Twilight Sun does not rise Sun does not rise
Astronomical Twilight Sun does not rise Sun does not rise
Moon 2:59 AM AKDT (5/22) 6:57 AM AKDT (5/22)
Length of Visible Light 22h 55m
Length of Day
19h 28m
Waning Gibbous, 84% of the Moon is Illuminated
May 22
Waning Gibbous
May 26
Last Quarter
Jun 3
New
Jun 9
First Quarter
Jun 17
Full

Hourly Weather History & Observations

Time (AKDT) Temp. Dew Point Humidity Pressure Visibility Wind Dir Wind Speed Gust Speed Precip Events Conditions
12:53 AM 51.1 °F 39.9 °F 66% 29.99 in 10.0 mi Calm Calm - N/A   Mostly Cloudy
1:53 AM 50.0 °F 41.0 °F 71% 30.00 in 10.0 mi South 4.6 mph - N/A   Mostly Cloudy
2:53 AM 46.9 °F 37.9 °F 71% 30.01 in 10.0 mi Calm Calm - N/A   Mostly Cloudy
3:53 AM 46.0 °F 37.9 °F 73% 30.02 in 10.0 mi Calm Calm - N/A   Mostly Cloudy
4:53 AM 46.0 °F 37.0 °F 71% 30.03 in 10.0 mi Calm Calm - N/A   Mostly Cloudy
5:53 AM 48.0 °F 39.0 °F 71% 30.03 in 10.0 mi Calm Calm - N/A   Mostly Cloudy
6:53 AM 50.0 °F 37.9 °F 63% 30.03 in 10.0 mi Calm Calm - N/A   Mostly Cloudy
7:53 AM 54.0 °F 37.9 °F 55% 30.03 in 10.0 mi East 3.5 mph - N/A   Mostly Cloudy
8:53 AM 57.0 °F 37.9 °F 49% 30.01 in 10.0 mi Variable 3.5 mph - N/A   Mostly Cloudy
9:53 AM 59.0 °F 39.0 °F 48% 30.01 in 10.0 mi East 5.8 mph - N/A   Mostly Cloudy
10:53 AM 62.1 °F 39.0 °F 43% 30.01 in 10.0 mi ESE 8.1 mph - N/A   Mostly Cloudy
11:53 AM 61.0 °F 37.0 °F 41% 30.00 in 10.0 mi East 8.1 mph - N/A   Mostly Cloudy
12:53 PM 60.1 °F 39.9 °F 47% 30.00 in 10.0 mi ENE 5.8 mph - N/A   Mostly Cloudy
1:53 PM 62.1 °F 39.9 °F 44% 29.99 in 10.0 mi ENE 8.1 mph - N/A   Mostly Cloudy
2:53 PM 64.9 °F 39.9 °F 40% 29.96 in 10.0 mi Calm Calm - N/A   Mostly Cloudy
3:53 PM 69.1 °F 41.0 °F 36% 29.93 in 10.0 mi NE 4.6 mph - N/A   Mostly Cloudy
4:53 PM 70.0 °F 42.1 °F 36% 29.91 in 10.0 mi Calm Calm - N/A   Mostly Cloudy
5:53 PM 72.0 °F 42.1 °F 34% 29.88 in 10.0 mi ESE 3.5 mph - N/A   Mostly Cloudy
6:53 PM 72.0 °F 41.0 °F 33% 29.86 in 10.0 mi South 3.5 mph - N/A   Mostly Cloudy
7:53 PM 72.0 °F 41.0 °F 33% 29.85 in 10.0 mi SE 4.6 mph - N/A   Mostly Cloudy
8:53 PM 72.0 °F 42.1 °F 34% 29.83 in 10.0 mi Calm Calm - N/A   Mostly Cloudy
9:53 PM 68.0 °F 46.9 °F 47% 29.83 in 10.0 mi Calm Calm - N/A   Mostly Cloudy
10:53 PM 63.0 °F 48.0 °F 58% 29.82 in 10.0 mi Calm Calm - N/A   Mostly Cloudy
11:53 PM 60.1 °F 46.0 °F 60% 29.83 in 10.0 mi Calm Calm - N/A   Mostly Cloudy